{"data":{"norad_id":59790,"epoch":"2026-05-25T00:55:02.856000Z","epoch_age_seconds":72011,"freshness":"FRESH","line1":"1 59790U 24093J   26145.03822750  .00000072  00000+0  12152-4 0  9996","line2":"2 59790  43.0033 137.5755 0001676 285.0496  75.0170 15.27574230114374","mean_motion":15.2757423,"eccentricity":0.0001676,"inclination_deg":43.0033,"raan_deg":137.5755,"arg_perigee_deg":285.0496,"mean_anomaly_deg":75.017,"bstar":1.2152e-5,"rev_number":11437,"period_min":94.267104780892,"perigee_km":481.91643586438,"apogee_km":484.21631123519,"semimajor_km":6861.2033735498,"source":"CELESTRAK","updated_at":"2026-05-25T13:38:19.081809Z"}}